SB KEPS @ AMSAT $ORB11020.O Orbital Elements 11020.OSCAR
HR AMSAT ORBITAL ELEMENTS FOR OSCAR SATELLITES FROM WA5QGD FORT WORTH,TX January 20, 2011 Send Subscribe/unsubscribe to KEPS at http://www.amsat.org/mailman/listinfo/keps BID: ORB11020.O TO ALL RADIO AMATEURS BT
Satellite: AO-07 Catalog number: 07530 Epoch time: 11019.55721521 Element set: 0983 Inclination: 101.3955 deg RA of node: 031.9600 deg Eccentricity: 0.0011690 Arg of perigee: 210.7662 deg Mean anomaly: 149.2728 deg Mean motion: 12.53580846 rev/day Decay rate: -2.7e-07 rev/day^2 Epoch rev: 65556 Checksum: 289
Satellite: FO-29 Catalog number: 24278 Epoch time: 11019.93013909 Element set: 0503 Inclination: 098.5222 deg RA of node: 184.2024 deg Eccentricity: 0.0349751 Arg of perigee: 281.6712 deg Mean anomaly: 074.5379 deg Mean motion: 13.52956669 rev/day Decay rate: 3.9e-07 rev/day^2 Epoch rev: 71241 Checksum: 318
Satellite: SO-33 Catalog number: 25509 Epoch time: 11019.36822700 Element set: 885 Inclination: 031.4342 deg RA of node: 005.9707 deg Eccentricity: 0.0353537 Arg of perigee: 020.1957 deg Mean anomaly: 341.2276 deg Mean motion: 14.28361434 rev/day Decay rate: 3.01e-06 rev/day^2 Epoch rev: 63898 Checksum: 292
Satellite: RS-22 Catalog number: 27939 Epoch time: 11020.61586935 Element set: 918 Inclination: 097.8641 deg RA of node: 241.5042 deg Eccentricity: 0.0014719 Arg of perigee: 091.4122 deg Mean anomaly: 268.8764 deg Mean motion: 14.63501577 rev/day Decay rate: 6.4e-07 rev/day^2 Epoch rev: 39075 Checksum: 318
Satellite: VO-52 Catalog number: 28650 Epoch time: 11020.70167305 Element set: 698 Inclination: 097.6650 deg RA of node: 070.2952 deg Eccentricity: 0.0025813 Arg of perigee: 285.6548 deg Mean anomaly: 074.1826 deg Mean motion: 14.81895271 rev/day Decay rate: 5.13e-06 rev/day^2 Epoch rev: 30890 Checksum: 312
Satellite: SO-67 Catalog number: 35870 Epoch time: 11020.80279384 Element set: 488 Inclination: 097.3040 deg RA of node: 068.8352 deg Eccentricity: 0.0004506 Arg of perigee: 065.8715 deg Mean anomaly: 064.7846 deg Mean motion: 15.21297890 rev/day Decay rate: 5.55e-06 rev/day^2 Epoch rev: 7453 Checksum: 326
Satellite: HO-68 Catalog number: 36122 Epoch time: 11020.63124818 Element set: 41 Inclination: 100.4396 deg RA of node: 083.5595 deg Eccentricity: 0.0007334 Arg of perigee: 199.7949 deg Mean anomaly: 160.2879 deg Mean motion: 13.16283748 rev/day Decay rate: -4.5e-07 rev/day^2 Epoch rev: 5282 Checksum: 307
/EX SB KEPS @ AMSAT $ORB11020.D Orbital Elements 11020.MICROS
HR AMSAT ORBITAL ELEMENTS FOR THE MICROSATS FROM WA5QGD FORT WORTH,TX January 20, 2011 Send Subscribe/unsubscribe to KEPS at http://www.amsat.org/mailman/listinfo/keps BID: ORB11020.D TO ALL RADIO AMATEURS BT
Satellite: UO-11 Catalog number: 14781 Epoch time: 11019.79844611 Element set: 448 Inclination: 098.0257 deg RA of node: 076.8263 deg Eccentricity: 0.0007946 Arg of perigee: 258.1384 deg Mean anomaly: 101.8938 deg Mean motion: 14.79882529 rev/day Decay rate: 3.75e-06 rev/day^2 Epoch rev: 44384 Checksum: 344
Satellite: AO-16 Catalog number: 20439 Epoch time: 11020.86080010 Element set: 98 Inclination: 098.3645 deg RA of node: 335.5566 deg Eccentricity: 0.0010061 Arg of perigee: 239.4960 deg Mean anomaly: 120.5229 deg Mean motion: 14.31892236 rev/day Decay rate: 1.8e-07 rev/day^2 Epoch rev: 9653 Checksum: 281
Satellite: LO-19 Catalog number: 20442 Epoch time: 11019.84564962 Element set: 5 Inclination: 098.3262 deg RA of node: 339.5099 deg Eccentricity: 0.0011185 Arg of perigee: 234.8945 deg Mean anomaly: 125.1208 deg Mean motion: 14.32119873 rev/day Decay rate: -5.1e-07 rev/day^2 Epoch rev: 9656 Checksum: 304
Satellite: AO-27 Catalog number: 22825 Epoch time: 11020.79501819 Element set: 729 Inclination: 098.5137 deg RA of node: 328.4213 deg Eccentricity: 0.0008542 Arg of perigee: 355.3843 deg Mean anomaly: 004.7271 deg Mean motion: 14.29323495 rev/day Decay rate: -3.5e-07 rev/day^2 Epoch rev: 90313 Checksum: 295
Satellite: IO-26 Catalog number: 22826 Epoch time: 11020.26138572 Element set: 466 Inclination: 098.5077 deg RA of node: 328.4244 deg Eccentricity: 0.0008789 Arg of perigee: 351.5970 deg Mean anomaly: 008.5066 deg Mean motion: 14.29583233 rev/day Decay rate: 4.0e-07 rev/day^2 Epoch rev: 90317 Checksum: 307
Satellite: GO-32 Catalog number: 25397 Epoch time: 11019.64044397 Element set: 386 Inclination: 098.3184 deg RA of node: 020.2139 deg Eccentricity: 0.0001537 Arg of perigee: 028.8172 deg Mean anomaly: 331.3083 deg Mean motion: 14.23193746 rev/day Decay rate: -1.91e-06 rev/day^2 Epoch rev: 65083 Checksum: 296
Satellite: NO-44 Catalog number: 26931 Epoch time: 11020.21934368 Element set: 659 Inclination: 067.0538 deg RA of node: 004.7892 deg Eccentricity: 0.0006789 Arg of perigee: 271.9678 deg Mean anomaly: 088.0617 deg Mean motion: 14.29630777 rev/day Decay rate: -1.2e-07 rev/day^2 Epoch rev: 48577 Checksum: 340
Satellite: SO-50 Catalog number: 27607 Epoch time: 11020.33638611 Element set: 370 Inclination: 064.5590 deg RA of node: 056.8982 deg Eccentricity: 0.0055574 Arg of perigee: 356.6557 deg Mean anomaly: 003.4144 deg Mean motion: 14.71632027 rev/day Decay rate: -6.0e-08 rev/day^2 Epoch rev: 43433 Checksum: 287
Satellite: CO-55 Catalog number: 27844 Epoch time: 11020.07689678 Element set: 26 Inclination: 098.7079 deg RA of node: 030.9246 deg Eccentricity: 0.0009099 Arg of perigee: 267.3881 deg Mean anomaly: 092.6254 deg Mean motion: 14.20762529 rev/day Decay rate: 5.7e-07 rev/day^2 Epoch rev: 39188 Checksum: 342
Satellite: CO-57 Catalog number: 27848 Epoch time: 11020.56114553 Element set: 974 Inclination: 098.7137 deg RA of node: 030.5446 deg Eccentricity: 0.0009049 Arg of perigee: 271.1603 deg Mean anomaly: 088.8546 deg Mean motion: 14.20548790 rev/day Decay rate: 5.5e-07 rev/day^2 Epoch rev: 39190 Checksum: 316
Satellite: AO-51 Catalog number: 28375 Epoch time: 11020.66995140 Element set: 876 Inclination: 098.0806 deg RA of node: 007.0091 deg Eccentricity: 0.0083691 Arg of perigee: 156.7664 deg Mean anomaly: 203.7338 deg Mean motion: 14.40720257 rev/day Decay rate: 2.8e-07 rev/day^2 Epoch rev: 34482 Checksum: 306
Satellite: CP3 Catalog number: 31129 Epoch time: 11020.65292779 Element set: 777 Inclination: 097.9146 deg RA of node: 053.2957 deg Eccentricity: 0.0101312 Arg of perigee: 279.3046 deg Mean anomaly: 079.6707 deg Mean motion: 14.52365803 rev/day Decay rate: 1.84e-06 rev/day^2 Epoch rev: 19942 Checksum: 317
Satellite: CO-65 Catalog number: 32785 Epoch time: 11019.25985041 Element set: 0893 Inclination: 097.8697 deg RA of node: 085.8831 deg Eccentricity: 0.0014224 Arg of perigee: 304.7641 deg Mean anomaly: 055.2235 deg Mean motion: 14.81808723 rev/day Decay rate: 3.3e-07 rev/day^2 Epoch rev: 14748 Checksum: 324
Satellite: KKS-1 Catalog number: 33493 Epoch time: 11020.78679360 Element set: 236 Inclination: 098.1054 deg RA of node: 147.4856 deg Eccentricity: 0.0020426 Arg of perigee: 154.7886 deg Mean anomaly: 205.4333 deg Mean motion: 14.81290074 rev/day Decay rate: 5.16e-06 rev/day^2 Epoch rev: 10769 Checksum: 300
Satellite: SOHLA-1 Catalog number: 33496 Epoch time: 11020.77726177 Element set: 312 Inclination: 098.0695 deg RA of node: 132.2249 deg Eccentricity: 0.0005895 Arg of perigee: 225.6998 deg Mean anomaly: 134.3737 deg Mean motion: 14.69549722 rev/day Decay rate: 7.6e-07 rev/day^2 Epoch rev: 10683 Checksum: 327
Satellite: TISAT-1 Catalog number: 36799 Epoch time: 11020.79241799 Element set: 510 Inclination: 098.1222 deg RA of node: 087.4891 deg Eccentricity: 0.0016170 Arg of perigee: 036.9803 deg Mean anomaly: 323.2496 deg Mean motion: 14.80293893 rev/day Decay rate: 2.87e-06 rev/day^2 Epoch rev: 2850 Checksum: 316
Satellite: STUDSAT Catalog number: 36801 Epoch time: 11019.70446836 Element set: 0147 Inclination: 098.1264 deg RA of node: 086.2510 deg Eccentricity: 0.0014601 Arg of perigee: 028.4032 deg Mean anomaly: 331.7963 deg Mean motion: 14.79954064 rev/day Decay rate: 8.34e-06 rev/day^2 Epoch rev: 02833 Checksum: 284
Satellite: RAX Catalog number: 37223 Epoch time: 11019.85109331 Element set: 0058 Inclination: 071.9733 deg RA of node: 006.1071 deg Eccentricity: 0.0022144 Arg of perigee: 206.6527 deg Mean anomaly: 153.3499 deg Mean motion: 14.77220009 rev/day Decay rate: 2.15e-06 rev/day^2 Epoch rev: 00897 Checksum: 265
Satellite: OOREOS Catalog number: 37224 Epoch time: 11003.47313986 Element set: 0047 Inclination: 071.9731 deg RA of node: 042.3045 deg Eccentricity: 0.0021305 Arg of perigee: 233.7010 deg Mean anomaly: 126.2182 deg Mean motion: 14.76873402 rev/day Decay rate: 1.90e-06 rev/day^2 Epoch rev: 00655 Checksum: 247
Satellite: NANOSALD Catalog number: 37225 Epoch time: 11020.08293137 Element set: 0002 Inclination: 071.9753 deg RA of node: 005.7427 deg Eccentricity: 0.0021680 Arg of perigee: 201.8671 deg Mean anomaly: 158.1355 deg Mean motion: 14.77033912 rev/day Decay rate: -4.69e-06 rev/day^2 Epoch rev: 00011 Checksum: 255
Satellite: FAST1-2 Catalog number: 37227 Epoch time: 11019.13957879 Element set: 0057 Inclination: 071.9728 deg RA of node: 007.8425 deg Eccentricity: 0.0018182 Arg of perigee: 203.2896 deg Mean anomaly: 156.7400 deg Mean motion: 14.76384927 rev/day Decay rate: -4.9e-07 rev/day^2 Epoch rev: 00886 Checksum: 328
/EX SB KEPS @ AMSAT $ORB11020.W Orbital Elements 11020.WEATHER
HR AMSAT ORBITAL ELEMENTS FOR WEATHER SATELLITES FROM WA5QGD FORT WORTH,TX January 20, 2011 Send Subscribe/unsubscribe to KEPS at http://www.amsat.org/mailman/listinfo/keps BID: ORB11020.W TO ALL RADIO AMATEURS BT
Satellite: NOAA-10 Catalog number: 16969 Epoch time: 11020.16971314 Element set: 365 Inclination: 098.6356 deg RA of node: 051.8548 deg Eccentricity: 0.0011669 Arg of perigee: 300.8616 deg Mean anomaly: 059.1418 deg Mean motion: 14.27441565 rev/day Decay rate: 6.3e-07 rev/day^2 Epoch rev: 26653 Checksum: 306
